User: anonymous   Login
Location: Irma
(52.9170°N, 111.2330°W)
Time: 05:08:16
(UTC-06:00)
Language:

deb Chang Zheng 4 - Orbit

View from above orbital plane
View from above orbital plane
View from above satellite
View from above satellite

Ground track
Ground track

The orbit data is extracted from the following two-line orbital elements,

1 20847U 90081K   18144.72436138  .00001677  00000-0  21874-3 0  9997
2 20847  98.5112  55.1548 0018642  55.2715 305.0249 14.81928781456369
Epoch (UTC): 24 May 2018 17:23:04
Eccentricity: 0.0018642
inclination: 98.5112°
perigee height: 610 km
apogee height: 636 km
right ascension of ascending node: 55.1548°
argument of perigee: 55.2715°
revolutions per day: 14.81928781
mean anomaly at epoch: 305.0249°
orbit number at epoch: 45636

The dashed part of the orbit path shows where the satellite is in the earth's shadow,  

DLR